www.pogodaiklimat.ru

Погода и климат >> Архив погоды >> Мексика >> Choix


ПОГОДА в Choix

  • Прогноз погоды в Choix
  • Монитор погоды в Choix
  • Климат города

АРХИВ ПОГОДЫ в Choix

Время (UTC), дата Ветер
(напр.,м/с)
 
Видим.   Явления Облачность Т
(С)
Тd
(С)
f
(%)
Тe
(С)
Тes
(С)
Комфортность P
(гПа)
Po
(гПа)
Тmin
(С)
Tmax
(С)
R
(мм)
R24
(мм)
S
(см)
00 18.05 З 5 30 км ясно +35.0 +21.5 46 +43 +45 опасность
перегрева
1006.3 979.9 +16.1 +35.8
03 18.05 З 5 30 км ясно +35.0 +21.5 46 +43 +43 опасность
перегрева
1006.3 979.9 +16.1 +35.8
06 18.05 ЮЗ 4 2000 м ясно +27.1 +18.2 58 +32 +32 очень
душно
1007.0 980.7
12 18.05 ЮЗ 1 8000 м ясно +16.6 +15.3 92 +17 +17 1008.4 981.3 +16.4 +35.8
15 18.05 В 1 30 км ясно +24.5 +20.4 78 +30 +38 очень
душно
1009.7 982.3
18 18.05 В 1 30 км ясно +32.2 +24.4 63 +44 +68 опасность
перегрева
1009.3 982.0 +15.7 +32.5
00 19.05 З 1 30 км ясно +34.2 +26.6 65 +51 +56 опасность
перегрева
1005.4 978.8 +15.7 +36.8
03 19.05 штиль 0 2000 м ясно +26.9 +20.5 68 +33 +33 очень
душно
1006.4 980.1
06 19.05 штиль 0 2000 м ясно +23.9 +19.1 75 +29 +29 душно 1007.1 980.7 +15.7 +36.8
12 19.05 штиль 0 2000 м ясно +18.6 +15.4 82 +19 +19 1009.6 981.7 +14.8 +36.8
15 19.05 штиль 0 30 км ясно +26.4 +17.5 58 +31 +39 душно 1008.7 981.5
18 19.05 штиль 0 30 км ясно +33.6 +23.0 54 +44 +71 опасность
перегрева
1008.0 980.9 +16.2 +34.0
21 19.05 З 1 30 км ясно +35.6 +26.2 58 +51 +73 опасность
перегрева
1006.6 979.7
00 20.05 З 1 30 км ясно +36.5 +27.9 61 +56 +61 опасность
перегрева
1005.6 979.3 +16.2 +37.8
03 20.05 штиль 0 2000 м ясно +28.0 +25.5 86 +41 +41 опасность
перегрева
1006.1 980.0
06 20.05 штиль 0 2000 м ясно +24.0 +19.1 74 +29 +29 душно 1007.3 981.0 +16.2 +37.8
09 20.05 штиль 0 2000 м ясно +20.4 +17.4 83 +23 +23 комфорт 1008.0 981.6
12 20.05 штиль 0 2000 м ясно +17.8 +15.4 86 +18 +18 1005.6 978.9 +14.2 +37.8
15 20.05 штиль 0 30 км ясно +27.7 +20.2 64 +29 +37 жарко 1007.3 980.2
18 20.05 штиль 0 30 км ясно +35.3 +26.3 60 +52 +79 опасность
перегрева
1006.5 979.5 +16.6 +36.0
21 20.05 З 1 30 км ясно +38.2 +28.1 57 +59 +80 опасность
перегрева
1004.9 978.3
00 21.05 ЮЗ 2 30 км ясно +37.4 +27.8 58 +57 +61 опасность
перегрева
1003.2 977.1 +16.6 +39.4
03 21.05 ЮЗ 2 2000 м ясно +30.2 +24.1 70 +42 +42 опасность
перегрева
1005.6 979.6
06 21.05 штиль 0 2000 м ясно +24.4 +20.3 78 +30 +30 очень
душно
1007.8 981.6 +16.6 +39.4
09 21.05 штиль 0 2000 м ясно +20.5 +17.3 82 +24 +24 комфорт 1007.7 981.2
12 21.05 штиль 0 2000 м ясно +18.2 +15.7 85 +18 +18 1008.8 981.9 +18.0 +39.4
15 21.05 штиль 0 30 км ясно +26.5 +22.8 80 +35 +44 очень
душно
1010.9 983.6
18 21.05 штиль 0 30 км ясно +34.9 +26.5 62 +52 +79 опасность
перегрева
1010.3 983.2 +17.3 +35.2
21 21.05 З 2 30 км ясно +38.0 +28.0 57 +58 +76 опасность
перегрева
1007.8 981.1
00 22.05 З 2 30 км 9/0
[Cs]
+37.3 +26.8 55 +54 +58 опасность
перегрева
1006.2 980.0 +17.3 +39.2
03 22.05 З 1 2000 м 6/0
[Cs]
+30.0 +21.7 61 +38 +38 очень
душно
1009.2 983.1
06 22.05 штиль 0 2000 м ясно +24.4 +18.2 68 +29 +29 душно 1009.9 983.7 +17.3 +39.2
09 22.05 штиль 0 2000 м ясно +19.8 +14.8 73 +22 +22 комфорт 1009.6 983.8
12 22.05 штиль 0 2000 м ясно +17.3 +13.7 79 +17 +17 1009.8 982.8 +17.1 +39.2
15 22.05 штиль 0 30 км ясно +25.9 +20.8 73 +32 +41 очень
душно
1010.7 983.4
18 22.05 СЗ 1 30 км ясно +36.8 +26.5 56 +54 +77 опасность
перегрева
1009.8 982.7 +16.1 +37.2
21 22.05 З 2 30 км ясно +39.2 +26.8 50 +56 +74 опасность
перегрева
1008.5 981.8
00 23.05 З 2 30 км ясно +39.5 +27.0 50 +57 +61 опасность
перегрева
1006.3 980.1 +16.1 +39.9
03 23.05 ЮЗ 2 2000 м ясно +31.3 +21.4 56 +39 +39 очень
душно
1008.4 982.5
06 23.05 штиль 0 2000 м ясно +24.7 +17.2 63 +29 +29 душно 1009.6 983.5 +16.1 +39.9
09 23.05 штиль 0 2000 м ясно +19.9 +14.4 71 +22 +22 комфорт 1009.7 983.2
12 23.05 штиль 0 2000 м ясно +17.7 +13.5 76 +18 +18 1009.7 982.7 +17.5 +39.9
15 23.05 штиль 0 30 км ясно +25.5 +19.6 70 +31 +40 очень
душно
1010.5 983.2
18 23.05 З 2 30 км ясно +37.0 +26.6 55 +53 +74 опасность
перегрева
1008.8 981.7 +16.9 +37.3
21 23.05 З 4 30 км ясно +40.7 +26.6 45 +56 +69 опасность
перегрева
1006.9 980.2
00 24.05 З 2 30 км ясно +39.8 +26.4 47 +55 +59 опасность
перегрева
1005.4 979.3 +16.9 +41.3
03 24.05 ЮЗ 3 2000 м ясно +31.3 +23.1 62 +42 +42 опасность
перегрева
1006.7 980.9
09 24.05 З 1 2000 м ясно +20.7 +16.4 76 +25 +25 комфорт 1008.1 981.7
12 24.05 З 1 2000 м ясно +17.8 +14.6 82 +19 +19 1007.6 980.7 +17.6 +41.0
15 24.05 СВ 1 30 км ясно +27.0 +21.1 70 +34 +42 очень
душно
1008.6 981.4
18 24.05 З 4 30 км ясно +36.3 +26.5 57 +53 +66 опасность
перегрева
1008.0 981.0 +17.4 +36.8

 

Местоположение метеостанции Choix (Мексика): широта 26.73 долгота -108.20 высота над уровнем моря 238 м.

В архиве по умолчанию представлена погода в Choix за последнюю неделю. Архивные данные за месяц целиком и за предыдущие месяцы, начиная с января 2011 года, Вы можете получить, выбрав интересующий диапазон дат из раскрывающегося списка и нажав кнопку "Ввод!".

Внимание! Время в таблицах - всемирное. Для получения местного времени необходимо прибавить поправку, которая в Choix равна -6 ч.

Смотрите также архив погоды в соседних городах и на ближайших метеорологических станциях:

Погода в Ciudad Obregon (Мексика) (177 км)
Погода в Culiacan (Мексика) (229 км)
Погода в Temosachic (Мексика) (250 км)
Погода в Hidalgo del Parral (Мексика) (259 км)
Погода в Empalme (Мексика) (282 км)
Погода в Tepehuanes (Мексика) (292 км)
Погода в Guaymas Upper Air Site (Мексика) (296 км)
Погода в Chihuahua (Мексика) (303 км)
Погода в Chihuahua University (Мексика) (303 км)
Погода в Loreto (Мексика) (319 км)

Пояснения к столбцам:

Ветер - указаны скорость ветра в м/с - средняя за 10 мин, порывы в срок и между сроками (в фигурных скобках) и направление, откуда дует ветер: С - северный, СВ - северо-восточный, В - восточный, ЮВ - юго-восточный, Ю - южный, ЮЗ - юго-западный, З - западный, СЗ - северо-западный.
Видимость - горизонтальная дальность видимости в метрах или километрах. При видимости от 1 до 10 км при отсутствии осадков обычно наблюдается дымка, при ухудшении видимости до 1 км и менее - туман. В сухую погоду видимость может ухудшаться дымом, пылью или мглою.
Явления - указаны атмосферные явления, наблюдавшиеся в срок или в последний час перед сроком; фигурными скобками обозначены явления, наблюдавшиеся между сроками (за 1-3 часа до срока); квадратными скобками обозначены град или гололедные отложения с указанием их диаметра в мм.
Облачность - указаны через наклонную черту общая и нижняя облачность в баллах и высота нижней границы облаков в метрах; квадратными скобками обозначены формы облаков: Ci - перистые, Cs - перисто-слоистые, Cc - перисто-кучевые, Ac - высококучевые, As - высокослоистые, Sc - слоисто-кучевые, Ns - слоисто-дождевые, Cu - кучевые, Cb - кучево-дождевые. Подробнее классификацию облаков см. в Атласе облаков (PDF).
T - Температура воздуха - температура, измеренная на высоте 2 м над землей.
Td - Температура точки росы - температура, при понижении до которой содержащийся в воздухе водяной пар достигнет насыщения.
f - Относительная влажность воздуха - влажноcть воздуха, измеренная на высоте 2 м над землей.
Te - Эффективная температура - температура, которую ощущает одетый по сезону человек в тени. Характеристика душности погоды. При расчете учитывается влияние влажности воздуха и скорости ветра на теплоощущения человека.
Tes - Эффективная температура на солнце - температура, которую ощущает человек, с поправкой на солнечный нагрев. Характеристика знойности погоды. Зависит от высоты солнца над горизонтом, облачности и скорости ветра. Ночью, в пасмурную погоду, а также при ветре 12 м/с и более поправка равна нулю.
P - Атмосферное давление - приведенное к уровню моря атмосферное давление.
Po - Атмосферное давление - измеренное на уровне метеостанции атмосферное давление.
Tmin - Минимальная температура - минимум температуры воздуха на высоте 2 м над землей.
Tmax - Максимальная температура - максимум температуры воздуха на высоте 2 м над землей.
R - Количество осадков - Количество выпавших осадков за период времени, мм. При наведении курсора мыши на число - период времени, за который выпало указанное количество осадков.
R24 - Количество осадков - Количество выпавших осадков за 24 часа, мм.
S - Снежный покров - Высота снежного покрова, см. При наведении курсора мыши на число - состояние снежного покрова и степень покрытия местности в баллах.